{"data":{"norad_id":61592,"epoch":"2026-05-25T02:58:01.027200Z","epoch_age_seconds":64528,"freshness":"FRESH","line1":"1 61592U 24187U   26145.12362300 -.00002224  00000+0 -63047-4 0  9995","line2":"2 61592  53.1601  54.5358 0000963  92.3182 267.7929 15.30179245 91003","mean_motion":15.30179245,"eccentricity":9.63e-5,"inclination_deg":53.1601,"raan_deg":54.5358,"arg_perigee_deg":92.3182,"mean_anomaly_deg":267.7929,"bstar":-6.3047e-5,"rev_number":9100,"period_min":94.106622129749,"perigee_km":474.61705703654,"apogee_km":475.9370245808,"semimajor_km":6853.4140408087,"source":"CELESTRAK","updated_at":"2026-05-25T13:38:19.405660Z"}}